KC3LBR Weather Reports


Display with metric or nautical units.
time (UTC)temp
F
wind
direction
speed
MPH
gust
MPH
rain 1hr
in
rain 24hr
in
rain mn
in
humidity
%
barometer
mb
20260505180001 79 0 66.0 79.0 0.00 0.00 0.00
20260505175402 81 0 66.0 81.0 0.00 0.00 0.00
20260505174802 79 0 66.0 79.0 0.00 0.00 0.00
20260505174202 81 0 66.0 81.0 0.00 0.00 0.00
20260505173602 80 0 66.0 80.0 0.00 0.00 0.00
20260505173002 80 0 66.0 80.0 0.00 0.00 0.00
20260505172402 80 0 66.0 80.0 0.00 0.00 0.00
20260505171802 81 0 66.0 81.0 0.00 0.00 0.00
20260505171202 80 0 65.0 80.0 0.00 0.00 0.00
20260505170602 82 0 65.0 82.0 0.00 0.00 0.00
20260505170002 82 0 65.0 82.0 0.00 0.00 0.00
20260505165401 80 0 65.0 80.0 0.00 0.00 0.00
20260505164802 78 0 65.0 78.0 0.00 0.00 0.00
20260505164201 81 0 65.0 81.0 0.00 0.00 0.00
20260505163602 80 0 65.0 80.0 0.00 0.00 0.00
20260505163001 80 0 65.0 80.0 0.00 0.00 0.00
20260505162402 80 0 65.0 80.0 0.00 0.00 0.00
20260505161802 78 0 65.0 78.0 0.00 0.00 0.00
20260505161202 79 0 64.0 79.0 0.00 0.00 0.00
20260505160602 78 0 64.0 78.0 0.00 0.00 0.00
20260505153003 80 0 64.0 80.0 0.00 0.00 0.00
20260505152403 79 0 64.0 79.0 0.00 0.00 0.00
20260505151802 80 0 64.0 80.0 0.00 0.00 0.00
20260505151202 76 0 64.0 76.0 0.00 0.00 0.00
20260505150602 76 0 63.0 76.0 0.00 0.00 0.00
20260505140602 72 0 63.0 72.0 0.00 0.00 0.00
20260505124801 65 0 62.0 65.0 0.00 0.00 0.00
20260505124202 64 0 62.0 64.0 0.00 0.00 0.00
20260505123602 64 0 62.0 64.0 0.00 0.00 0.00
20260505123001 63 0 62.0 63.0 0.00 0.00 0.00
20260505122402 63 0 62.0 63.0 0.00 0.00 0.00
20260505121802 62 0 62.0 62.0 0.00 0.00 0.00
20260505121201 62 0 62.0 62.0 0.00 0.00 0.00
20260505120602 62 0 62.0 62.0 0.00 0.00 0.00
20260505120002 61 0 62.0 61.0 0.00 0.00 0.00
20260505115402 61 0 62.0 61.0 0.00 0.00 0.00
20260505114802 60 0 62.0 60.0 0.00 0.00 0.00
20260505114202 60 0 62.0 60.0 0.00 0.00 0.00
20260505113601 59 0 62.0 59.0 0.00 0.00 0.00
20260505113002 59 0 61.0 59.0 0.00 0.00 0.00
20260505112402 59 0 62.0 59.0 0.00 0.00 0.00
20260505111802 58 0 61.0 58.0 0.00 0.00 0.00
20260505111201 56 0 62.0 56.0 0.00 0.00 0.00
20260505110602 55 0 62.0 55.0 0.00 0.00 0.00
20260505101803 51 0 62.0 51.0 0.00 0.00 0.00
20260505101201 51 0 58.0 51.0 0.00 0.00 0.00
20260505100602 51 0 59.0 51.0 0.00 0.00 0.00
20260505100002 52 0 59.0 52.0 0.00 0.00 0.00
20260505095403 52 0 59.0 52.0 0.00 0.00 0.00
20260505094801 52 0 59.0 52.0 0.00 0.00 0.00
20260505094201 52 0 59.0 52.0 0.00 0.00 0.00
20260505093002 53 0 59.0 53.0 0.00 0.00 0.00
20260505092402 54 0 59.0 54.0 0.00 0.00 0.00
20260505091802 54 0 59.0 54.0 0.00 0.00 0.00
20260505091202 55 0 59.0 55.0 0.00 0.00 0.00
20260505090601 54 0 59.0 54.0 0.00 0.00 0.00
20260505090002 54 0 60.0 54.0 0.00 0.00 0.00
20260505085401 56 0 60.0 56.0 0.00 0.00 0.00
20260505084802 56 0 60.0 56.0 0.00 0.00 0.00
20260505084201 56 0 60.0 56.0 0.00 0.00 0.00
20260505083602 56 0 60.0 56.0 0.00 0.00 0.00
20260505083003 56 0 60.0 56.0 0.00 0.00 0.00
20260505082402 56 0 60.0 56.0 0.00 0.00 0.00
20260505081802 56 0 60.0 56.0 0.00 0.00 0.00
20260505081201 56 0 60.0 56.0 0.00 0.00 0.00
20260505080602 57 0 60.0 57.0 0.00 0.00 0.00
20260505080002 57 0 60.0 57.0 0.00 0.00 0.00
20260505075401 58 0 60.0 58.0 0.00 0.00 0.00
20260505074801 58 0 60.0 58.0 0.00 0.00 0.00
20260505073602 57 0 60.0 57.0 0.00 0.00 0.00
20260505073001 56 0 60.0 56.0 0.00 0.00 0.00
20260505072402 56 0 60.0 56.0 0.00 0.00 0.00
20260505071801 56 0 60.0 56.0 0.00 0.00 0.00
20260505071202 56 0 60.0 56.0 0.00 0.00 0.00
20260505070603 56 0 60.0 56.0 0.00 0.00 0.00
20260505070001 56 0 60.0 56.0 0.00 0.00 0.00
20260505065402 56 0 60.0 56.0 0.00 0.00 0.00
20260505064801 56 0 60.0 56.0 0.00 0.00 0.00
20260505064202 57 0 61.0 57.0 0.00 0.00 0.00
20260505063601 57 0 61.0 57.0 0.00 0.00 0.00
20260505063002 57 0 61.0 57.0 0.00 0.00 0.00
20260505062402 56 0 61.0 56.0 0.00 0.00 0.00
20260505061802 56 0 61.0 56.0 0.00 0.00 0.00
20260505061202 56 0 61.0 56.0 0.00 0.00 0.00
20260505060602 56 0 61.0 56.0 0.00 0.00 0.00
20260505060001 57 0 61.0 57.0 0.00 0.00 0.00
20260505055401 57 0 61.0 57.0 0.00 0.00 0.00
20260505054802 58 0 61.0 58.0 0.00 0.00 0.00
20260505054201 58 0 61.0 58.0 0.00 0.00 0.00
20260505053602 58 0 61.0 58.0 0.00 0.00 0.00
20260505053002 59 0 62.0 59.0 0.00 0.00 0.00
20260505052403 59 0 61.0 59.0 0.00 0.00 0.00
20260505051801 58 0 61.0 58.0 0.00 0.00 0.00
20260505051202 59 0 61.0 59.0 0.00 0.00 0.00
20260505050602 59 0 61.0 59.0 0.00 0.00 0.00
20260505041204 59 0 62.0 59.0 0.00 0.00 0.00
20260505040602 59 0 62.0 59.0 0.00 0.00 0.00
20260505040002 60 0 62.0 60.0 0.00 0.00 0.00
20260505035402 60 0 62.0 60.0 0.00 0.00 0.00
20260505034802 60 0 62.0 60.0 0.00 0.00 0.00
20260505034203 60 0 62.0 60.0 0.00 0.00 0.00
20260505033602 60 0 62.0 60.0 0.00 0.00 0.00
20260505033002 60 0 62.0 60.0 0.00 0.00 0.00
20260505032402 60 0 62.0 60.0 0.00 0.00 0.00
20260505031802 60 0 62.0 60.0 0.00 0.00 0.00
20260505031201 60 0 62.0 60.0 0.00 0.00 0.00
20260505030601 60 0 62.0 60.0 0.00 0.00 0.00
20260505030002 60 0 62.0 60.0 0.00 0.00 0.00
20260505025401 60 0 62.0 60.0 0.00 0.00 0.00
20260505024802 60 0 62.0 60.0 0.00 0.00 0.00
20260505024201 60 0 62.0 60.0 0.00 0.00 0.00
20260505023601 60 0 62.0 60.0 0.00 0.00 0.00
20260505023002 60 0 62.0 60.0 0.00 0.00 0.00
20260505022402 60 0 62.0 60.0 0.00 0.00 0.00
20260505021802 60 0 62.0 60.0 0.00 0.00 0.00
20260505021202 61 0 62.0 61.0 0.00 0.00 0.00
20260505020602 61 0 62.0 61.0 0.00 0.00 0.00
20260505020001 61 0 62.0 61.0 0.00 0.00 0.00
20260505015402 61 0 63.0 61.0 0.00 0.00 0.00
20260505014802 60 0 63.0 60.0 0.00 0.00 0.00
20260505014202 61 0 63.0 61.0 0.00 0.00 0.00
20260505013601 61 0 63.0 61.0 0.00 0.00 0.00
20260505013002 61 0 63.0 61.0 0.00 0.00 0.00
20260505012402 61 0 63.0 61.0 0.00 0.00 0.00
20260505011802 61 0 63.0 61.0 0.00 0.00 0.00
20260505011202 61 0 63.0 61.0 0.00 0.00 0.00
20260505010601 62 0 63.0 62.0 0.00 0.00 0.00
20260505010002 62 0 64.0 62.0 0.00 0.00 0.00
20260505005402 62 0 64.0 62.0 0.00 0.00 0.00
20260505004802 62 0 64.0 62.0 0.00 0.00 0.00
20260505004201 62 0 64.0 62.0 0.00 0.00 0.00
20260505003602 63 0 63.0 63.0 0.00 0.00 0.00
20260505003002 63 0 64.0 63.0 0.00 0.00 0.00
20260505002401 63 0 64.0 63.0 0.00 0.00 0.00
20260505001801 64 0 64.0 64.0 0.00 0.00 0.00
20260505001203 64 0 64.0 64.0 0.00 0.00 0.00
20260505000602 64 0 64.0 64.0 0.00 0.00 0.00
20260505000001 64 0 64.0 64.0 0.00 0.00 0.00
20260504235403 64 0 64.0 64.0 0.00 0.00 0.00
20260504234802 64 0 64.0 64.0 0.00 0.00 0.00
20260504234202 64 0 64.0 64.0 0.00 0.00 0.00
20260504233602 65 0 64.0 65.0 0.00 0.00 0.00
20260504233001 65 0 64.0 65.0 0.00 0.00 0.00
20260504232402 66 0 64.0 66.0 0.00 0.00 0.00
20260504231802 66 0 64.0 66.0 0.00 0.00 0.00
20260504231202 66 0 64.0 66.0 0.00 0.00 0.00
20260504230602 66 0 64.0 66.0 0.00 0.00 0.00
20260504230002 66 0 64.0 66.0 0.00 0.00 0.00
20260504225402 67 0 64.0 67.0 0.00 0.00 0.00
20260504224802 66 0 64.0 66.0 0.00 0.00 0.00
20260504224202 67 0 64.0 67.0 0.00 0.00 0.00
20260504223601 67 0 64.0 67.0 0.00 0.00 0.00
20260504223002 67 0 64.0 67.0 0.00 0.00 0.00
20260504222402 67 0 64.0 67.0 0.00 0.00 0.00
20260504221802 67 0 64.0 67.0 0.00 0.00 0.00
20260504221202 68 0 64.0 68.0 0.00 0.00 0.00
20260504220602 68 0 64.0 68.0 0.00 0.00 0.00
20260504220001 68 0 64.0 68.0 0.00 0.00 0.00
20260504215402 67 0 64.0 67.0 0.00 0.00 0.00
20260504214802 68 0 64.0 68.0 0.00 0.00 0.00
20260504214202 68 0 64.0 68.0 0.00 0.00 0.00
20260504213602 68 0 64.0 68.0 0.00 0.00 0.00
20260504213002 68 0 64.0 68.0 0.00 0.00 0.00
20260504212402 68 0 64.0 68.0 0.00 0.00 0.00
20260504211802 68 0 64.0 68.0 0.00 0.00 0.00
20260504211202 68 0 64.0 68.0 0.00 0.00 0.00
20260504210602 68 0 64.0 68.0 0.00 0.00 0.00
20260504210003 68 0 64.0 68.0 0.00 0.00 0.00
20260504205402 68 0 64.0 68.0 0.00 0.00 0.00
20260504204802 68 0 64.0 68.0 0.00 0.00 0.00
20260504204201 68 0 64.0 68.0 0.00 0.00 0.00
20260504203601 68 0 64.0 68.0 0.00 0.00 0.00
20260504203002 70 0 64.0 70.0 0.00 0.00 0.00
20260504202401 70 0 64.0 70.0 0.00 0.00 0.00
20260504201803 68 0 64.0 68.0 0.00 0.00 0.00
20260504201203 69 0 64.0 69.0 0.00 0.00 0.00
20260504200601 70 0 64.0 70.0 0.00 0.00 0.00
20260504200002 69 0 64.0 69.0 0.00 0.00 0.00
20260504195402 69 0 64.0 69.0 0.00 0.00 0.00
20260504194803 68 0 64.0 68.0 0.00 0.00 0.00
20260504194201 69 0 64.0 69.0 0.00 0.00 0.00
20260504193602 69 0 64.0 69.0 0.00 0.00 0.00
20260504193002 68 0 63.0 68.0 0.00 0.00 0.00
20260504192402 72 0 63.0 72.0 0.00 0.00 0.00
20260504191802 71 0 63.0 71.0 0.00 0.00 0.00
20260504191202 70 0 63.0 70.0 0.00 0.00 0.00
20260504190602 73 0 63.0 73.0 0.00 0.00 0.00
20260504190002 73 0 63.0 73.0 0.00 0.00 0.00
20260504185401 73 0 63.0 73.0 0.00 0.00 0.00
20260504184802 72 0 63.0 72.0 0.00 0.00 0.00
20260504184202 70 0 63.0 70.0 0.00 0.00 0.00
20260504183602 70 0 63.0 70.0 0.00 0.00 0.00
20260504183002 68 0 63.0 68.0 0.00 0.00 0.00
20260504182404 72 0 63.0 72.0 0.00 0.00 0.00
20260504181802 72 0 63.0 72.0 0.00 0.00 0.00
20260504181202 70 0 62.0 70.0 0.00 0.00 0.00
20260504180602 70 0 62.0 70.0 0.00 0.00 0.00